Showing default

OTB, 44341

Orbit data source: Space-Track

OTB, 44341 is a payload satellite owned by GA-EMS (US) in LEO that was launched on Tue, 25 Jun 2019 UTC via an FALCON HEAVY launch vehicle from the Air Force Eastern Test Range (AFETR). Payload-class satellites include a variety of spacecraft equipped with specific instruments for various scientific and technological missions. These include communications satellites like Starlink; space stations such as the ISS; scientific satellites like the Hubble; Earth observation satellites from companies like Planet Labs, Umbra, and HawkEye 360; GPS; miniature CubeSats for education and research; and military/defense satellites.

Not visible in the next 10 days
Identifier
44341, 2019-036C
Orbit
LEO
Country
Flag of USUS
Related business
Manufacturer
GA-EMS
Mission
Operational Commercial Tech/Misc
Bus & Motor
SSTL-150, Unknown motor
Mass
100 kg wet, 100 kg dry
Launch date (UTC)
2019-06-25 (6 years ago)
Launch vehicle
FALCON HEAVY
Launch site
Air Force Eastern Test Range (AFETR)
Object type
Payload
Rocket body
Debris
Shape & HBR
Box + 4 Pan, 1.5 m
Radar Cross Section
1.570 m², Large (>1 m²)

Expand to show TLE details & history
Last TLE update: 16 hours ago

TLE from 16 hours ago
0 OTB
1 44341U 19036C   25298.93692943  .00002099  00000-0  41494-3 0  9991
2 44341  23.9985  23.6258 0010715 311.5735  48.3838 14.56533962337178
Epoch: 2025-10-25T22:29Z
TLE epoch observation values (Epoch: 2025-10-25T22:29:10.702Z)
Latitude
-0.00002°
Longitude
11.77084°
Altitude
697.281 km
Speed
7.513 km/s
True Right ascension
01h 34m 30s
True Declination
0° 00' 00"
Sunlit
Object was in full shadow at epoch
Visualization orbit readout
Latitude
Unknown
Longitude
Unknown
Altitude
Unknown
Speed
Unknown
Apparent Right ascension
Unknown
Apparent Declination
Unknown
Sunlit
N/A
Visualization observer readout
Local Sidereal Time
09:41:58
Azimuth
Unknown
Elevation
Unknown
Doppler factor
Unknown
Orbital elements
Apogee altitude
716.664 km
Perigee altitude
701.476 km
Semi-major axis
7,087.207 km
Eccentricity
0.00107
Inclination
23.9985°
RAAN
23.6258°
Arg. of periapsis
311.5735°
True anomaly
48.47568°
Mean anomaly
48.3838°
Eccentric anomaly
48.42973°
Mean motion
3.63773 °/min
Orbital period
98.96 mins
BSTAR
0.00041494
Loading maneuver chart data...
Computing Atmospheric mass density...
Loading historical data...
Loading historical data...
Loading historical data...
Loading historical data...
Loading historical data...
Loading historical data...
Loading historical data...

Documentation

Showing up to 5 results
|